Location: Bangkok
(13.7500°N, 100.5170°E)
Time: 14:01:53
(UTC+07:00)

HST - Visible Passes

Search period start: 25 October 2014 00:00
Search period end: 04 November 2014 00:00
Orbit: 546 x 550 km, 28.5° (Epoch: 24 October)

Date Brightness Start Highest point End Pass type
(mag) Time Alt. Az. Time Alt. Az. Time Alt. Az.
25 Oct 2.7 19:01:21 10° WNW 19:04:30 20° NNW 19:06:20 16° NNE visible
26 Oct 3.0 18:54:39 10° NW 18:57:23 17° NNW 18:59:33 12° NNE visible
27 Oct 3.1 18:48:01 10° NW 18:50:18 14° NNW 18:52:35 10° NNE visible
28 Oct 3.2 18:41:26 10° NW 18:43:13 12° N 18:45:00 10° NNE visible
29 Oct 3.2 18:34:53 10° NNW 18:36:09 11° N 18:37:26 10° NNE visible
30 Oct 3.3 18:28:19 10° NNW 18:29:06 10° N 18:29:53 10° N visible
31 Oct 3.3 18:21:33 10° N 18:22:03 10° N 18:22:33 10° N visible
01 Nov 3.2 18:14:14 10° N 18:14:59 10° N 18:15:44 10° NNE visible
02 Nov 3.5 19:46:45 10° NW 19:47:09 12° NNW 19:47:09 12° NNW visible
03 Nov 3.1 19:39:13 10° NW 19:40:26 17° NNW 19:40:26 17° NNW visible
